Date String (YYYY-MM-DD hh:mm:ss) UTC,Instrument flags,Ambient pressure (hPa),Sample flow (lpm),Bypass flow (lpm),Sample temperature (°C),Ambient temperature (°C),ASC tube jacket temperature (°C),LED temperature (°C),Box temperature (°C),Sample RH (%),Span deviation,Mass concentration (μg/m³),Mass concentration (μg/m³),Mass concentration (μg/m³)
DateTimeUTC,F1_M11,P_M11,Q1_M11,Q2_M11,T1_M11,T2_M11,T3_M11,T4_M11,T5_M11,U1_M11,ZSPAN_M11,X0_M11,X2_M11,X1_M11
2023-05-22 01:00:00,,0831.8,4.99,0.00,29.7,28.5,00.0,37.9,31.4,17.1,0003.6,0020.83,0014.39,0013.60
2023-05-22 01:01:00,,0831.8,5.01,0.00,29.7,28.6,00.0,37.9,31.5,17.3,0003.6,0020.77,0014.39,0013.57
2023-05-22 01:02:00,,0831.8,5.00,0.00,29.8,28.5,00.0,38.0,31.5,17.7,0003.6,0021.31,0014.39,0013.56
2023-05-22 01:03:00,,0832.1,4.98,0.00,29.8,27.1,00.0,37.9,31.3,18.0,0003.6,0021.01,0014.36,0013.53
2023-05-22 01:04:00,,0832.1,5.01,0.00,29.7,26.0,00.0,37.8,31.2,17.9,0003.6,0020.87,0014.32,0013.51
2023-05-22 01:05:00,,0831.8,5.01,0.00,29.7,26.0,00.0,37.8,31.1,17.0,0003.6,0020.55,0014.26,0013.48
2023-05-22 01:06:00,,0831.7,5.00,0.00,29.6,26.3,00.0,37.8,31.1,16.5,0003.6,0020.09,0014.24,0013.46
2023-05-22 01:07:00,,0831.8,4.99,0.00,29.6,26.6,00.0,37.8,31.1,16.7,0003.5,0020.01,0014.23,0013.45
2023-05-22 01:08:00,,0831.7,4.99,0.00,29.6,26.9,00.0,37.8,31.2,17.7,0003.6,0019.92,0014.21,0013.44
2023-05-22 01:09:00,,0831.7,5.00,0.00,29.6,27.2,00.0,37.9,31.2,18.1,0003.6,0020.11,0014.22,0013.42
2023-05-22 01:10:00,,0831.8,5.00,0.00,29.6,27.5,00.0,37.9,31.3,17.8,0003.6,0020.41,0014.29,0013.46
2023-05-22 01:11:00,,0832.0,5.01,0.00,29.6,27.7,00.0,37.9,31.3,18.0,0003.5,0020.21,0014.27,0013.44
2023-05-22 01:12:00,,0832.0,5.01,0.00,29.6,27.9,00.0,37.9,31.3,17.4,0003.4,0020.26,0014.28,0013.46
2023-05-22 01:13:00,,0831.9,4.99,0.00,29.6,28.1,00.0,37.9,31.4,17.1,0003.5,0019.28,0014.27,0013.45
2023-05-22 01:14:00,,0832.1,4.99,0.00,29.7,28.3,00.0,37.9,31.4,17.1,0003.5,0019.40,0014.27,0013.44
2023-05-22 01:15:00,,0832.2,5.01,0.00,29.7,28.4,00.0,37.9,31.4,17.6,0003.5,0019.51,0014.28,0013.43
2023-05-22 01:16:00,,0832.0,5.00,0.00,29.7,28.3,00.0,38.0,31.4,17.5,0003.5,0019.65,0014.30,0013.43
2023-05-22 01:17:00,,0831.8,4.99,0.00,29.7,26.7,00.0,37.9,31.3,17.6,0003.5,0020.34,0014.33,0013.43
2023-05-22 01:18:00,,0831.7,5.01,0.00,29.7,25.8,00.0,37.8,31.1,17.8,0003.6,0020.81,0014.34,0013.42
2023-05-22 01:19:00,,0831.7,5.01,0.00,29.6,25.9,00.0,37.8,31.0,18.1,0003.6,0020.96,0014.37,0013.41
2023-05-22 01:20:00,,0831.7,5.00,0.00,29.5,26.2,00.0,37.8,31.0,17.4,0003.6,0020.99,0014.37,0013.40
2023-05-22 01:21:00,,0831.8,5.00,0.00,29.5,26.5,00.0,37.8,31.0,17.3,0003.4,0021.00,0014.33,0013.35
2023-05-22 01:22:00,,0831.7,5.00,0.00,29.5,26.9,00.0,37.8,31.1,17.3,0003.5,0021.28,0014.32,0013.34
2023-05-22 01:23:00,,0831.7,5.01,0.00,29.5,27.2,00.0,37.8,31.2,17.2,0003.5,0021.74,0014.31,0013.35
2023-05-22 01:24:00,,0831.7,4.99,0.00,29.5,27.5,00.0,37.8,31.2,17.1,0003.5,0022.51,0014.31,0013.33
2023-05-22 01:25:00,,0832.1,5.00,0.00,29.6,27.7,00.0,37.9,31.2,17.2,0003.5,0022.46,0014.32,0013.32
2023-05-22 01:26:00,,0832.2,4.99,0.00,29.6,27.9,00.0,37.9,31.3,16.8,0003.4,0022.28,0014.28,0013.30
2023-05-22 01:27:00,,0832.2,5.00,0.00,29.6,28.1,00.0,37.9,31.3,16.2,0003.4,0022.72,0014.29,0013.29
2023-05-22 01:28:00,,0831.9,4.99,0.00,29.6,28.2,00.0,37.9,31.4,16.2,0003.3,0022.31,0014.28,0013.28
2023-05-22 01:29:00,,0831.8,5.02,0.00,29.7,28.3,00.0,37.9,31.4,16.3,0003.4,0022.09,0014.28,0013.27
2023-05-22 01:30:00,,0831.8,5.00,0.00,29.7,28.4,00.0,37.9,31.4,16.4,0003.4,0022.95,0014.28,0013.25
2023-05-22 01:31:00,,0831.9,4.98,0.00,29.7,27.5,00.0,37.9,31.3,16.5,0003.4,0023.00,0014.24,0013.23
2023-05-22 01:32:00,,0831.8,5.00,0.00,29.7,26.0,00.0,37.8,31.1,16.7,0003.5,0022.78,0014.26,0013.24
2023-05-22 01:33:00,,0831.8,5.01,0.00,29.6,25.8,00.0,37.8,31.1,16.8,0003.6,0022.62,0014.29,0013.24
2023-05-22 01:34:00,,0831.8,5.00,0.00,29.6,26.1,00.0,37.8,31.0,17.2,0003.6,0022.03,0014.25,0013.20
2023-05-22 01:35:00,,0831.8,4.99,0.00,29.5,26.4,00.0,37.8,31.0,17.0,0003.8,0021.16,0014.26,0013.19
2023-05-22 01:36:00,,0832.2,4.99,0.00,29.5,26.7,00.0,37.8,31.1,17.0,0003.7,0021.23,0014.28,0013.21
2023-05-22 01:37:00,,0832.3,5.00,0.00,29.5,27.0,00.0,37.8,31.1,17.1,0003.6,0021.20,0014.28,0013.21
2023-05-22 01:38:00,,0832.0,5.01,0.00,29.5,27.3,00.0,37.8,31.2,17.1,0003.7,0020.78,0014.24,0013.19
2023-05-22 01:39:00,,0831.8,5.01,0.00,29.5,27.6,00.0,37.8,31.2,17.3,0003.7,0020.80,0014.24,0013.22
2023-05-22 01:40:00,,0831.8,5.00,0.00,29.6,27.8,00.0,37.8,31.3,17.4,0003.6,0021.14,0014.20,0013.21
2023-05-22 01:41:00,,0831.8,4.98,0.00,29.6,28.0,00.0,37.9,31.3,17.4,0003.6,0020.20,0014.17,0013.23
2023-05-22 01:42:00,,0831.8,5.01,0.00,29.6,28.1,00.0,37.9,31.3,17.5,0003.5,0020.50,0014.20,0013.24
2023-05-22 01:43:00,,0831.8,5.01,0.00,29.7,28.3,00.0,37.9,31.4,17.4,0003.6,0020.90,0014.15,0013.23
2023-05-22 01:44:00,,0831.8,5.00,0.00,29.7,28.4,00.0,37.9,31.4,17.3,0003.5,0021.07,0014.14,0013.22
2023-05-22 01:45:00,,0831.8,4.98,0.00,29.7,28.5,00.0,37.9,31.5,17.3,0003.4,0021.19,0014.15,0013.23
2023-05-22 01:46:00,,0831.8,5.00,0.00,29.7,27.3,00.0,37.9,31.3,17.2,0003.4,0021.18,0014.15,0013.24
2023-05-22 01:47:00,,0832.0,5.00,0.00,29.7,25.4,00.0,37.8,31.0,17.2,0003.5,0020.98,0014.10,0013.23
2023-05-22 01:48:00,,0832.0,5.01,0.00,29.6,24.8,00.0,37.7,30.9,17.4,0003.5,0020.97,0014.09,0013.22
2023-05-22 01:49:00,,0832.2,5.01,0.00,29.5,25.0,00.0,37.7,30.8,18.0,0003.3,0021.31,0014.10,0013.22
2023-05-22 01:50:00,,0832.1,5.00,0.00,29.4,25.4,00.0,37.7,30.8,17.8,0003.1,0021.46,0014.03,0013.19
2023-05-22 01:51:00,,0831.8,4.99,0.00,29.3,25.8,00.0,37.7,30.8,17.9,0003.1,0020.51,0014.04,0013.20
2023-05-22 01:52:00,,0831.8,5.00,0.00,29.3,26.2,00.0,37.7,30.9,18.0,0003.2,0020.53,0014.06,0013.21
2023-05-22 01:53:00,,0831.8,5.01,0.00,29.3,26.6,00.0,37.7,30.9,17.8,0003.4,0020.14,0014.07,0013.25
2023-05-22 01:54:00,,0831.8,4.99,0.00,29.3,26.9,00.0,37.7,31.0,17.7,0003.3,0019.41,0014.06,0013.27
2023-05-22 01:55:00,,0831.8,4.99,0.00,29.4,27.2,00.0,37.7,31.0,17.7,0003.0,0019.08,0014.04,0013.27
2023-05-22 01:56:00,,0831.9,5.01,0.00,29.4,27.4,00.0,37.7,31.1,17.7,0003.0,0019.71,0014.06,0013.29
2023-05-22 01:57:00,,0831.9,5.02,0.00,29.4,27.6,00.0,37.7,31.1,17.8,0003.0,0019.99,0014.07,0013.32
2023-05-22 01:58:00,,0831.9,4.99,0.00,29.4,27.8,00.0,37.7,31.2,17.7,0002.9,0020.27,0014.12,0013.35
2023-05-22 01:59:00,,0831.9,5.00,0.00,29.5,28.0,00.0,37.7,31.2,17.6,0002.8,0020.28,0014.13,0013.36
